Regional Weather Roundup
Issued by NWS

Home | Current Version | Previous Version | Graphics & Text | Print | Product List | Glossary On
Versions: 1 2 3 4 5 6 7 8 9 10 11 12 13 14 15 16 17 18 19 20 21 22 23 24 25 26 27 28 29 30 31 32 33 34 35 36 37 38 39 40 41 42 43 44 45 46 47 48 49 50
000
ASUS44 KMEG 250010
RWRTN
TENNESSEE HOURLY STATE WEATHER ROUNDUP
NATIONAL WEATHER SERVICE MEMPHIS TN
700 PM CDT THU JUL 24 2014

TNZ002-004-019-021-049-052-054-088>092-250100-
WEST TENNESSEE

CITY           SKY/WX    TMP DP  RH WIND       PRES   REMARKS
MEMPHIS INTL   MOSUNNY   79  59  50 N9        30.00S
NWS MEMPHIS      N/A     80 N/A N/A MISG        N/A
JACKSON        MOSUNNY   79  62  56 N7        29.99F
DYERSBURG      MOSUNNY   79  57  47 N8        30.01S
UNION CITY     SUNNY     77  61  57 N10       30.01R
PARIS          MOSUNNY   75  60  59 N6        30.01S
LEXINGTON      SUNNY     77  63  61 NW5       29.98S
$$

TNZ008-025-027-028-033-062-065-066-250100-
NORTH MIDDLE TENNESSEE

CITY           SKY/WX    TMP DP  RH WIND       PRES   REMARKS
NASHVILLE      MOSUNNY   82  61  48 N8        29.97S
DICKSON        SUNNY     79  59  50 NE5       29.99F
PORTLAND       SUNNY     79  57  47 N7        29.98S
CLARKSVILLE    SUNNY     80  56  43 N9        29.99R
SMYRNA         CLEAR     84  63  49 N9        29.97S
MURFREESBORO   CLEAR     82  61  49 NW7       29.96S
COOKEVILLE     MOCLDY    75  66  73 NE3       29.99R
LIVINGSTON       N/A     71  62  73 NE8       30.02S
GALLATIN       SUNNY     82  59  45 N9        29.98S
CROSSVILLE     PTCLDY    73  64  73 N10       30.03R
$$

TNZ061-075-076-078-094-096-097-250100-
SOUTH MIDDLE TENNESSEE

CITY           SKY/WX    TMP DP  RH WIND       PRES   REMARKS
LEWISBURG      SUNNY     80  64  58 N5        29.97S
FAYETTEVILLE   CLEAR     77  64  65 N12       29.98R
TULLAHOMA      CLEAR     77  64  65 N6        29.99S
WINCHESTER     CLEAR     79  66  65 N5        29.98S
MCMINNVILLE    CLEAR     79  70  73 N6        29.99R
COLUMBIA       SUNNY     81  66  61 N7        29.97R
SHELBYVILLE    CLEAR     81  66  61 NW6       29.98S
$$

TNZ017-018-042-046-047-250100-
NORTHEAST TENNESSEE

CITY           SKY/WX    TMP DP  RH WIND       PRES   REMARKS
TRI CITIES     MOCLDY    71  62  73 N12       30.00R
ELIZABETHTON   MOCLDY    70  64  83 CALM      29.98R
$$

TNZ012-013-036-069-073-074-250100-
CENTRAL EAST TENNESSEE

CITY           SKY/WX    TMP DP  RH WIND       PRES   REMARKS
KNOXVILLE      MOCLDY    74  65  73 N12       29.97R
OAK RIDGE      PTCLDY    75  64  68 NE9       30.00R
GATLINBURG     CLOUDY    75  64  69 NE5       29.98R
MORRISTOWN     CLEAR     73  64  73 N8        30.00S
$$

TNZ083-085-099-250100-
SOUTHEAST TENNESSEE

CITY           SKY/WX    TMP DP  RH WIND       PRES   REMARKS
CHATTANOOGA    PTCLDY    83  67  58 N13       29.94R
$$

SKY/WX REPORTED AS FAIR MEANS FEW OR NO CLOUDS BELOW
12 THOUSAND FEET.



USA.gov is the U.S. government's official web portal to all federal, state and local government web resources and services.